Погода в Уайалле

Австралия     33°02′55″S   137°32′44″E
В апреле 2022 года жителям России запретили посещать сайт meteo.paraplan.net по решению Генеральной прокуратуры. Аудитория сайта уменьшилась в 10 раз. Владельцы сайта не видят смысла в поддержке погодного сервера в таких условиях. Сайт будет закрыт в октябре.
темп.,
°C
ветер,
м/с
пор.,
м/с
влажн.,
%
обл.,
%
осадки,
мм/ч
давл.,
гПа
погр.,
м
25 сентября, вс
вс2500:30+14юв22621 0.0 101311
03:30+13вюв1161100 0.0 101211
06:30+15ссз1153100 0.0 101311
09:30+17ю8950100 0.0 1015356
12:30+18ююв5651100 0.0 1014449
15:30+17ююв566198 0.3 1012255
18:30+16ююв2266100 0.0 101326
21:30+16ююв2376100 0.0 101458
26 сентября, пн
пн2600:30+14ююз57847 0.0 1013134
03:30+13ююз57927 0.1 1013154
06:30+13ю7119323 0.0 1015343
09:30+16ю897693 0.0 1017852
12:30+16ю997498 0.1 1016896
15:30+16ю9106023 0.1 1015799
18:30+13ю610590 0.0 1017310
21:30+12юз611681 0.0 1019373
27 сентября, вт
вт2700:30+11юз8126422 0.0 1019496
03:30+12ююз8115899 0.0 10181077
06:30+10юз6106677 0.1 1019530
09:30+14ю9104995 0.1 10201778
12:30+15ю10114645 0.0 10201786
15:30+14ю11114621 0.0 10191655
18:30+12ююз811579 0.0 1021569
21:30+12ююз7116448 0.0 1021586
28 сентября, ср
ср2800:30+11ю69690 0.0 1021261
03:30+11ююз686943 0.0 1021272
06:30+12ю7860100 0.0 1022767
09:30+13ю885670 0.0 10241334
12:30+15ю88500 0.0 10231208
15:30+15ю88520 0.0 10221022
18:30+13ю912642 0.0 1023651
21:30+12ююв810670 0.0 1026619
29 сентября, чт
чт2900:30+11ююв69751 0.0 1026290
03:30+9юв69780 0.0 1025247
06:30+9юв58820 0.0 1026230
09:30+13юв68610 0.0 1028695
12:30+17ююв67490 0.0 10261083
15:30+17ю99572 0.0 1024848
18:30+14ююв912716 0.0 1026581
21:30+12ююв912702 0.0 1026513